Regional Weather Roundup
Issued by NWS

Home | Current Version | Previous Version | Graphics & Text | Print | Product List | Glossary On
Versions: 1 2 3 4 5 6 7 8 9 10 11 12 13 14 15 16 17 18 19 20 21 22 23 24 25 26 27 28 29 30 31 32 33 34 35 36 37 38 39 40 41 42 43 44 45 46 47 48 49 50
000
ASUS43 KFSD 010102
RWRSD

WEATHER ROUNDUP FOR SOUTH DAKOTA
NATIONAL WEATHER SERVICE SIOUX FALLS SD
800 PM CDT FRI JUL 31 2015

NOTE: "FAIR" INDICATES FEW OR NO CLOUDS BELOW 12,000 FEET WITH NO
SIGNIFICANT WEATHER AND/OR OBSTRUCTIONS TO VISIBILITY.


SDZ001>005-009-010-012>017-010200-
NORTHWEST AND NORTH CENTRAL SOUTH DAKOTA

CITY           SKY/WX    TMP DP  RH WIND       PRES   REMARKS
BUFFALO          N/A     86  44  23 SE10      30.01F
FAITH            N/A     87  38  17 E7        30.08F
MOBRIDGE       SUNNY     86  56  35 NE6       30.01F
$$

SDZ012>016-024>037-041>051-057-063-072>074-010200-
SOUTHWEST AND SOUTH CENTRAL SOUTH DAKOTA

CITY           SKY/WX    TMP DP  RH WIND       PRES   REMARKS
RAPID CTY ARPT MOSUNNY   80  56  43 NE10      30.10F
PIERRE         SUNNY     89  49  25 CALM      30.03S
CUSTER         SUNNY     76  47  35 SE8       30.27S
ELLSWORTH AFB  SUNNY     85  50  29 E10       30.10F
PHILIP         SUNNY     86  56  35 E7        30.05F
PINE RIDGE     SUNNY     86  53  32 E9        30.10S
WINNER         FAIR      86  56  35 E8        30.06F
$$

SDZ004>011-016>023-039-040-010200-
NORTHEAST SOUTH DAKOTA

CITY           SKY/WX    TMP DP  RH WIND       PRES   REMARKS
ABERDEEN       CLEAR     84  57  39 NW10      30.00S
WATERTOWN      CLEAR     77  63  61 SW5       30.03F
BROOKINGS      CLEAR     79  61  53 SW5       30.06F
SISSETON         N/A     80  65  59 CALM      29.98F
$$

SDZ017-020-022-023-036>040-048>070-010200-
SOUTHEAST SOUTH DAKOTA

CITY           SKY/WX    TMP DP  RH WIND       PRES   REMARKS
SIOUX FALLS    PTCLDY    80  60  50 CALM      30.05F
HURON          CLEAR     83  62  49 CALM      30.02F
MITCHELL       CLEAR     80  64  58 SE6       30.05R
YANKTON        CLEAR     81  68  65 E6        30.03S
$$

ABBREVIATIONS USED IN REMARKS
   TC - TEMPERATURE IN CELSIUS
  WCI - WIND CHILL INDEX
   HX - HEAT INDEX
  VSB - VISIBILITY




USA.gov is the U.S. government's official web portal to all federal, state and local government web resources and services.